Regional Weather Roundup
Issued by NWS Green Bay, WI

Current Version | Previous Version | Text Only | Print | Product List | Glossary On
Versions: 1 2 3 4 5 6 7 8 9 10 11 12 13 14 15 16 17 18 19 20 21 22 23 24 25 26 27 28 29 30 31 32 33 34 35 36 37 38 39 40 41 42 43 44 45 46 47 48 49 50
000
ASUS43 KGRB 160600
RWRGRB

NORTH-CENTRAL AND NORTHEAST WISCONSIN REGIONAL WEATHER ROUNDUP
NATIONAL WEATHER SERVICE GREEN BAY WI
1200 AM CST MON DEC 16 2019

WIZ005-009-010>012-018-019-160700-
NORTH CENTRAL WISCONSIN

CITY           SKY/WX    TMP DP  RH WIND       PRES   REMARKS
IRONWOOD       FLURRIES  11   4  73 SW9       29.99F WCI  -2
MANITOWISH WTR CLOUDY     8   1  72 SW6       29.98F WCI  -2
ARBOR VITAE    NOT AVBL
EAGLE RIVER    CLOUDY     9   2  73 SW5       29.99S WCI   1
LAND O LAKES   CLOUDY    10   4  77 SW3       29.99F
RHINELANDER    CLOUDY     8   1  73 SW5       30.00F WCI   0
PHILLIPS       CLOUDY     8   1  72 SW5       30.01F WCI   0
ANTIGO         CLOUDY     6   4  90 W5        30.03F WCI  -2
TOMAHAWK       CLOUDY     9   2  73 CALM      30.03S
MERRILL        CLOUDY     9   3  78 CALM      30.06S
$$

WIZ013-073-160700-
NORTHEAST WISCONSIN

CITY           SKY/WX    TMP DP  RH WIND       PRES   REMARKS
IRON MOUNTAIN  CLOUDY    10   4  76 CALM      30.01F
MARINETTE      MOCLDY     6   3  87 W3        30.11F
OCONTO         FAIR       5   1  83 CALM      30.12S
$$

WIZ017-030-035>037-045-160700-
CENTRAL WISCONSIN

CITY           SKY/WX    TMP DP  RH WIND       PRES   REMARKS
MEDFORD        CLOUDY     8   1  73 CALM      30.03S
WAUSAU         CLOUDY     8   1  73 CALM      30.05S
MOSINEE        NOT AVBL
MARSHFIELD     CLOUDY    10   3  73 SW5       30.05S WCI   2
WISC RAPIDS    MOCLDY     4   0  83 CALM      30.11S
STEVENS POINT  CLOUDY     6   4  89 CALM      30.09F
WAUPACA        FAIR      10   4  77 CALM      30.12F
SHAWANO        CLOUDY    11   4  72 SW3       30.10F
CLINTONVILLE   CLOUDY     6   1  79 CALM      30.11F
WAUTOMA        CLOUDY    14   7  73 CALM      30.12F
$$

WIZ038-039-048-051-160700-
FOX VALLEY

CITY           SKY/WX    TMP DP  RH WIND       PRES   REMARKS
NWS GREEN BAY  MOCLDY     9   2  73 SW3       30.12F
APPLETON       CLOUDY    12   3  67 W5        30.10S WCI   4
OSHKOSH        CLOUDY    15   7  70 CALM      30.12S
FOND DU LAC    CLOUDY    19  11  70 CALM      30.12S
$$

WIZ022-050-052-160700-
EAST CENTRAL WISCONSIN

CITY           SKY/WX    TMP DP  RH WIND       PRES   REMARKS
EPHRAIM        FAIR      15  10  83 W9        30.08S WCI   3
WASHINGTON ISL MOCLDY    16  11  80 W9G16     30.09R WCI   5
STURGEON BAY   FAIR       8   5  87 SW7       30.11S WCI  -3
MANITOWOC      CLOUDY    16   8  71 W6        30.13F WCI   7
SHEBOYGAN      CLOUDY    20  11  68 W5        30.12S
$$

LMZ563-521-522-541>543-160700-
LAKESHORE

STATION/POSITION TIME  TEMP    WIND        PRES    VSBY  WAVE
                       AIR SEA DIR/SP/G                  HT/PER
                 (UTC) (F)     (DEG/KT/KT) (MB)    (MI)  (FT/S)
SHEBOYGAN LKSHOR 0500   21     280/  7/  7 1021.4R
KEWAUNEE LKSHORE 0518   12     280/  5/  9 1019.5
CHAMBERS ISLAND  0540   14     200/  7/ 13   N/A
MENOMINEE LKSHOR 0512    9 36  250/  8/ 11 1019.3
$$



USA.gov is the U.S. government's official web portal to all federal, state and local government web resources and services.